| time (UTC) | temp F | wind direction | speed knots | gust knots | rain 1hr in | rain 24hr in | rain mn in | humidity % | barometer mb |
| 20260506104547 | 56 | 360 | 0.0 | 0.0 | 0.00 | 0.00 | 0.00 | 85 | 1011.2 |
| 20260506103047 | 56 | 350 | 0.0 | 0.0 | 0.00 | 0.00 | 0.00 | 85 | 1011.2 |
| 20260506101549 | 56 | 323 | 0.0 | 0.0 | 0.00 | 0.00 | 0.00 | 84 | 1011.1 |
| 20260506100057 | 56 | 294 | 0.0 | 0.0 | 0.00 | 0.00 | 0.00 | 84 | 1011.1 |
| 20260506094536 | 56 | 350 | 0.0 | 7.0 | 0.00 | 0.01 | 0.00 | 84 | 1011.2 |
| 20260506093042 | 56 | 333 | 0.0 | 6.1 | 0.00 | 0.01 | 0.00 | 83 | 1011.2 |
| 20260506091537 | 56 | 306 | 0.0 | 5.2 | 0.00 | 0.01 | 0.00 | 83 | 1011.0 |
| 20260506090033 | 56 | 329 | 0.9 | 5.2 | 0.00 | 0.01 | 0.00 | 83 | 1011.1 |
| 20260506084531 | 56 | 328 | 0.9 | 4.3 | 0.00 | 0.04 | 0.00 | 83 | 1011.1 |
| 20260506083032 | 56 | 321 | 4.3 | 7.8 | 0.00 | 0.04 | 0.00 | 84 | 1011.1 |
| 20260506081533 | 56 | 342 | 2.6 | 7.0 | 0.00 | 0.04 | 0.00 | 84 | 1011.2 |
| 20260506073037 | 56 | 333 | 0.0 | 5.2 | 0.00 | 0.06 | 0.04 | 85 | 1010.9 |
| 20260506071523 | 56 | 294 | 0.9 | 6.1 | 0.00 | 0.06 | 0.04 | 85 | 1010.9 |
| 20260506061518 | 56 | 313 | 0.0 | 5.2 | 0.00 | 0.08 | 0.04 | 84 | 1010.5 |
| 20260506044531 | 57 | 306 | 1.7 | 7.8 | 0.00 | 0.11 | 0.04 | 84 | 1010.0 |
| 20260506043011 | 57 | 301 | 1.7 | 7.0 | 0.00 | 0.11 | 0.04 | 83 | 1009.9 |
| 20260506041509 | 57 | 360 | 1.7 | 7.0 | 0.00 | 0.11 | 0.04 | 83 | 1009.7 |
| 20260506040006 | 57 | 331 | 2.6 | 7.8 | 0.00 | 0.11 | 0.04 | 82 | 1009.3 |
| 20260506034511 | 57 | 270 | 3.5 | 12.2 | 0.00 | 0.11 | 0.04 | 81 | 1009.1 |
| 20260506033007 | 57 | 273 | 4.3 | 9.6 | 0.00 | 0.11 | 0.04 | 81 | 1009.0 |
| 20260506031502 | 57 | 314 | 3.5 | 9.6 | 0.00 | 0.11 | 0.04 | 80 | 1008.8 |
| 20260506030100 | 58 | 290 | 3.5 | 10.4 | 0.00 | 0.11 | 0.04 | 80 | 1008.6 |
| 20260506024559 | 58 | 250 | 3.5 | 11.3 | 0.00 | 0.11 | 0.04 | 79 | 1008.5 |
| 20260506023111 | 58 | 275 | 6.1 | 13.0 | 0.00 | 0.11 | 0.04 | 78 | 1008.5 |
| 20260506021558 | 59 | 280 | 5.2 | 13.9 | 0.00 | 0.11 | 0.04 | 77 | 1008.2 |
| 20260506020058 | 59 | 280 | 6.1 | 12.2 | 0.00 | 0.11 | 0.04 | 76 | 1008.1 |
| 20260506014556 | 60 | 278 | 6.1 | 11.3 | 0.00 | 0.11 | 0.04 | 74 | 1008.1 |
| 20260506013058 | 61 | 273 | 3.5 | 11.3 | 0.00 | 0.11 | 0.04 | 73 | 1008.2 |
| 20260506011617 | 62 | 298 | 3.5 | 13.9 | 0.00 | 0.11 | 0.04 | 72 | 1008.1 |
| 20260506004621 | 63 | 360 | 5.2 | 13.0 | 0.00 | 0.11 | 0.04 | 70 | 1008.0 |
| 20260506003108 | 62 | 290 | 7.8 | 13.9 | 0.00 | 0.11 | 0.04 | 71 | 1007.8 |
| 20260506001556 | 62 | 295 | 8.7 | 13.9 | 0.00 | 0.11 | 0.04 | 71 | 1007.7 |
| 20260506000052 | 62 | 280 | 5.2 | 13.0 | 0.00 | 0.11 | 0.04 | 72 | 1007.7 |
| 20260505234614 | 62 | 306 | 7.0 | 13.0 | 0.00 | 0.11 | 0.04 | 73 | 1007.8 |
| 20260505233050 | 62 | 295 | 6.1 | 15.6 | 0.00 | 0.11 | 0.04 | 71 | 1007.9 |
| 20260505231549 | 64 | 277 | 6.1 | 14.8 | 0.00 | 0.11 | 0.04 | 70 | 1007.8 |
| 20260505230048 | 64 | 320 | 7.0 | 13.0 | 0.00 | 0.11 | 0.04 | 70 | 1007.8 |
| 20260505224548 | 63 | 360 | 8.7 | 15.6 | 0.00 | 0.11 | 0.04 | 69 | 1007.8 |
| 20260505223047 | 64 | 300 | 7.8 | 14.8 | 0.00 | 0.11 | 0.04 | 71 | 1007.7 |
| 20260505221546 | 62 | 296 | 6.1 | 12.2 | 0.00 | 0.11 | 0.04 | 73 | 1007.9 |
| 20260505220058 | 62 | 344 | 7.0 | 13.9 | 0.00 | 0.11 | 0.04 | 73 | 1008.1 |
| 20260505214544 | 62 | 300 | 7.8 | 14.8 | 0.00 | 0.11 | 0.04 | 74 | 1008.1 |
| 20260505213042 | 62 | 360 | 7.8 | 14.8 | 0.00 | 0.11 | 0.04 | 73 | 1008.2 |
| 20260505211546 | 62 | 283 | 8.7 | 13.9 | 0.00 | 0.11 | 0.04 | 72 | 1008.3 |
| 20260505210039 | 63 | 288 | 7.0 | 12.2 | 0.00 | 0.11 | 0.04 | 71 | 1008.3 |
| 20260505204538 | 63 | 307 | 3.5 | 11.3 | 0.00 | 0.11 | 0.04 | 71 | 1008.3 |
| 20260505203038 | 63 | 355 | 5.2 | 9.6 | 0.00 | 0.11 | 0.04 | 70 | 1008.3 |
| 20260505201538 | 64 | 333 | 5.2 | 13.0 | 0.00 | 0.11 | 0.04 | 69 | 1008.2 |
| 20260505200037 | 64 | 9 | 5.2 | 11.3 | 0.00 | 0.11 | 0.04 | 68 | 1008.2 |
| 20260505194539 | 64 | 19 | 4.3 | 11.3 | 0.00 | 0.11 | 0.04 | 70 | 1008.4 |
| 20260505193040 | 64 | 300 | 3.5 | 12.2 | 0.00 | 0.11 | 0.04 | 71 | 1008.4 |
| 20260505191544 | 62 | 309 | 5.2 | 11.3 | 0.00 | 0.11 | 0.04 | 74 | 1008.6 |
| 20260505190028 | 61 | 305 | 5.2 | 12.2 | 0.00 | 0.11 | 0.04 | 75 | 1008.3 |
| 20260505184528 | 61 | 346 | 4.3 | 13.0 | 0.00 | 0.11 | 0.04 | 77 | 1008.3 |
| 20260505183029 | 61 | 300 | 6.1 | 13.0 | 0.00 | 0.11 | 0.04 | 77 | 1008.4 |
| 20260505181525 | 60 | 301 | 6.1 | 11.3 | 0.00 | 0.11 | 0.04 | 77 | 1008.3 |
| 20260505180037 | 60 | 286 | 3.5 | 11.3 | 0.00 | 0.11 | 0.04 | 82 | 1008.1 |
| 20260505174530 | 59 | 307 | 3.5 | 8.7 | 0.00 | 0.11 | 0.04 | 84 | 1008.0 |
| 20260505173015 | 58 | 279 | 5.2 | 9.6 | 0.00 | 0.11 | 0.04 | 85 | 1008.0 |
| 20260505171515 | 57 | 315 | 4.3 | 11.3 | 0.00 | 0.11 | 0.04 | 86 | 1007.9 |
| 20260505170019 | 57 | 347 | 1.7 | 9.6 | 0.00 | 0.11 | 0.04 | 87 | 1007.9 |
| 20260505164507 | 57 | 274 | 0.9 | 7.8 | 0.00 | 0.11 | 0.04 | 88 | 1007.9 |
| 20260505163004 | 56 | 350 | 3.5 | 7.0 | 0.00 | 0.11 | 0.04 | 88 | 1007.9 |
| 20260505161502 | 56 | 54 | 2.6 | 7.8 | 0.00 | 0.11 | 0.04 | 88 | 1007.8 |
| 20260505153059 | 55 | 5 | 2.6 | 8.7 | 0.00 | 0.11 | 0.04 | 87 | 1007.5 |
| 20260505151554 | 55 | 344 | 4.3 | 12.2 | 0.00 | 0.11 | 0.04 | 87 | 1007.4 |
| 20260505124541 | 54 | 261 | 4.3 | 12.2 | 0.00 | 0.11 | 0.04 | 86 | 1006.6 |
| 20260505123058 | 54 | 283 | 4.3 | 7.8 | 0.00 | 0.11 | 0.04 | 86 | 1006.6 |
| 20260505121538 | 54 | 273 | 4.3 | 9.6 | 0.00 | 0.11 | 0.04 | 86 | 1006.6 |
| 20260505120036 | 54 | 279 | 5.2 | 11.3 | 0.00 | 0.11 | 0.04 | 86 | 1006.6 |
| 20260505114548 | 53 | 284 | 3.5 | 7.8 | 0.00 | 0.11 | 0.04 | 86 | 1006.6 |
| 20260505113038 | 53 | 284 | 1.7 | 5.2 | 0.00 | 0.11 | 0.04 | 86 | 1006.7 |
| 20260505111551 | 53 | 304 | 4.3 | 9.6 | 0.00 | 0.11 | 0.04 | 87 | 1006.8 |